Regional Weather Roundup
Issued by NWS

Home | Current Version | Previous Version | Graphics & Text | Print | Product List | Glossary On
Versions: 1 2 3 4 5 6 7 8 9 10 11 12 13 14 15 16 17 18 19 20 21 22 23 24 25 26 27 28 29 30 31 32 33 34 35 36 37 38 39 40 41 42 43 44 45 46 47 48 49
000
ASUS45 KCYS 190510
RWRWY

WYOMING REGIONAL WEATHER ROUNDUP
NATIONAL WEATHER SERVICE CHEYENNE WY
1000 PM MST THU DEC 18 2014

NOTE:  "FAIR" INDICATES FEW OR NO CLOUDS BELOW 12,000 FEET
WITH NO SIGNIFICANT WEATHER AND/OR OBSTRUCTIONS TO VISIBILITY.

WYZ001-190600-
YELLOWSTONE NATIONAL PARK

CITY           SKY/WX    TMP DP  RH WIND       PRES   REMARKS
LK YELLOWSTONE   N/A     23  18  81 CALM      30.07F
W YELLOWSTONE  NOT AVBL

$$
WYZ002>013-054>058-071-098>099-190600-
NORTHERN WYOMING

CITY           SKY/WX    TMP DP  RH WIND       PRES   REMARKS
JACKSON        CLOUDY    25  25 100 CALM      30.11R
CODY           FAIR      34  18  51 W6        30.00R WCI  29
GREYBULL       FAIR      14  11  87 CALM      30.07S
WORLAND        FAIR       6   3  87 S8        30.06F WCI  -7
SHERIDAN       FAIR      23  11  60 CALM      29.97S
BUFFALO        FAIR      27  13  55 W9        29.98F WCI  18
GILLETTE       FAIR      28  16  60 SW10      29.99R WCI  19
HULETT           N/A    N/A N/A N/A MISG        N/A
NEWCASTLE      FAIR      21  19  93 SE10      30.04S WCI  10

$$
WYZ014>020-022>026-101>103-190600-
CENTRAL WYOMING

CITY           SKY/WX    TMP DP  RH WIND       PRES   REMARKS
BIG PINEY      FAIR      13   9  84 NE8       30.12S WCI   2
PINEDALE       FLURRIES  14  12  92 NW5       30.13S WCI   6
DUBOIS         CLOUDY    27  14  59 W15       30.05S WCI  15
LANDER         FAIR       2  -1  88 CALM      30.05F FOG
RIVERTON       FOG        9   6  88 CALM      30.08R VSB 1/4
CASPER         FAIR      22  16  78 SW12      30.05S WCI  10
DOUGLAS        FAIR      17  12  80 N9        30.05S WCI   6

$$
WYZ021-027>030-104>119-190600-
SOUTHERN WYOMING

CITY           SKY/WX    TMP DP  RH WIND       PRES   REMARKS
EVANSTON       FAIR      22  20  92 SW9       30.14S WCI  12
KEMMERER       FAIR      21  19  93 W10       30.12F WCI  10
FORT BRIDGER   FAIR      26  23  88 SW12      30.16S WCI  16
ROCK SPRINGS   FAIR      22  16  78 SW14      30.13R WCI   9
DIXON          LGT SNOW N/A N/A N/A CALM      30.19S VSB 3/4
RAWLINS        FAIR      22  17  81 W10       30.10S WCI  11
SARATOGA       CLOUDY    18  14  86 SE5       30.13S WCI  11
LARAMIE        FAIR      12   6  77 SW10      30.06S WCI  -1
CHEYENNE       FAIR      28  14  55 W13       30.07R WCI  17
TORRINGTON     FAIR      22  19  89 SE3       30.06S
PINE BLUFFS    FAIR      23  19  86 W6        30.09R WCI  16

$$


USA.gov is the U.S. government's official web portal to all federal, state and local government web resources and services.